Nome, AK

1:14 AM AKDT on May 30, 2017 (GMT -0800)
Nome

Weather History for PAOM - April, 2013

Change the Weather History Date:

Friday, April 5, 2013

  Actual Average Record
Temperature  
Mean Temperature 17 °F 15 °F  
Max Temperature 25 °F 23 °F 40 °F (1994)
Min Temperature 9 °F 7 °F -30 °F (1918)
Degree Days  
Heating Degree Days 48 50  
Month to date heating degree days 238 256  
Since 1 July heating degree days 11527 11231  
Cooling Degree Days 0 0  
Month to date cooling degree days 0 0  
Year to date cooling degree days 0 0  
Moisture  
Dew Point 5 °F    
Average Humidity 0    
Maximum Humidity 0    
Minimum Humidity 0    
Precipitation  
Precipitation 0.00 in 0.02 in 0.39 in (2001)
Month to date precipitation T 0.11  
Year to date precipitation 2.16 2.63  
Snow  
Snow 0.00 in 0.30 in 3.80 in (2001)
Month to date snowfall 0.1 1.4  
Since 1 July snowfall 50.5 67.0  
Snow Depth 20.00 in    
Sea Level Pressure  
Sea Level Pressure 30.07 in    
Wind  
Wind Speed 15 mph (NNE)    
Max Wind Speed 28 mph    
Max Gust Speed 35 mph    
Visibility 10 miles    
Events      
T = Trace of Precipitation, MM = Missing Value Source: NWS Daily Summary

Daily Weather History Graph

Daily Weather History Graph

Search for Another Location

Airport or City:

Trip Planner

Search our weather history database for the weather conditions in past years. The results will help you decide how hot, cold, wet, or windy it might be!

Date:

Astronomy

Apr. 05, 2013 Rise Set
Actual Time 8:02 AM AKDT 10:07 PM AKDT
Civil Twilight 7:10 AM AKDT 11:00 PM AKDT
Nautical Twilight 6:01 AM AKDT 12:10 AM AKDT
Astronomical Twilight 4:15 AM AKDT 2:03 AM AKDT
Moon 6:52 AM AKDT (4/5) 4:18 PM AKDT (4/5)
Length of Visible Light 15h 49m
Length of Day
14h 05m
Waning Crescent, 22% of the Moon is Illuminated
Apr 5
Waning Crescent
Apr 10
New
Apr 18
First Quarter
Apr 25
Full
May 2
Last Quarter

Hourly Weather History & Observations

Time (AKDT) Temp. Windchill Dew Point Humidity Pressure Visibility Wind Dir Wind Speed Gust Speed Precip Events Conditions
12:53 AM 19.9 °F 11.1 °F 5.0 °F 52% 30.12 in 10.0 mi NE 6.9 mph - N/A   Mostly Cloudy
1:53 AM 19.0 °F 11.1 °F 3.9 °F 52% 30.11 in 10.0 mi North 5.8 mph - N/A   Mostly Cloudy
2:53 AM 24.1 °F 17.0 °F 1.9 °F 38% 30.10 in 10.0 mi Variable 5.8 mph - N/A   Scattered Clouds
3:53 AM 21.0 °F 14.6 °F 5.0 °F 50% 30.10 in 10.0 mi NE 4.6 mph - N/A   Scattered Clouds
4:53 AM 21.0 °F 5.7 °F 5.0 °F 50% 30.07 in 10.0 mi NE 19.6 mph 24.2 mph N/A   Scattered Clouds
5:53 AM 21.0 °F 4.3 °F 3.9 °F 48% 30.08 in 10.0 mi NE 24.2 mph 31.1 mph N/A   Scattered Clouds
6:53 AM 19.9 °F 4.8 °F 3.0 °F 48% 30.09 in 10.0 mi NE 18.4 mph - N/A   Scattered Clouds
7:53 AM 19.0 °F 2.7 °F 3.0 °F 50% 30.09 in 10.0 mi NNE 20.7 mph 28.8 mph N/A   Partly Cloudy
8:53 AM 19.0 °F 3.2 °F 3.9 °F 52% 30.09 in 10.0 mi NE 19.6 mph 26.5 mph N/A   Clear
9:53 AM 19.9 °F 5.2 °F 3.9 °F 50% 30.09 in 10.0 mi NE 17.3 mph 28.8 mph N/A   Clear
10:53 AM 19.9 °F 4.8 °F 5.0 °F 52% 30.09 in 10.0 mi NE 18.4 mph - N/A   Clear
11:53 AM 21.9 °F 6.5 °F 6.1 °F 51% 30.09 in 10.0 mi NNE 20.7 mph - N/A   Clear
12:53 PM 21.9 °F 6.5 °F 8.1 °F 55% 30.10 in 10.0 mi NNE 20.7 mph - N/A   Clear
1:53 PM 24.1 °F 12.5 °F 10.9 °F 57% 30.12 in 10.0 mi NNE 12.7 mph - N/A   Clear
2:53 PM 23.0 °F 10.6 °F 10.0 °F 58% 30.10 in 10.0 mi NNE 13.8 mph - N/A   Clear
3:53 PM 21.9 °F 9.2 °F 9.0 °F 58% 30.08 in 10.0 mi NE 13.8 mph - N/A   Clear
4:53 PM 23.0 °F 11.1 °F 8.1 °F 53% 30.06 in 10.0 mi North 12.7 mph - N/A   Mostly Cloudy
5:53 PM 21.0 °F 12.4 °F 5.0 °F 50% 30.06 in 10.0 mi East 6.9 mph - N/A   Mostly Cloudy
6:53 PM 21.9 °F 9.2 °F 6.1 °F 51% 30.03 in 10.0 mi North 13.8 mph 18.4 mph N/A   Scattered Clouds
7:53 PM 19.9 °F 4.8 °F 5.0 °F 52% 30.02 in 10.0 mi NE 18.4 mph 25.3 mph N/A   Scattered Clouds
8:53 PM 18.0 °F 1.7 °F 5.0 °F 57% 30.00 in 10.0 mi NNE 19.6 mph - N/A   Scattered Clouds
9:53 PM 15.1 °F 1.1 °F 3.0 °F 59% 30.01 in 10.0 mi NE 12.7 mph 20.7 mph N/A   Scattered Clouds
10:53 PM 12.9 °F -1.6 °F -0.0 °F 56% 30.01 in 10.0 mi NNW 12.7 mph - N/A   Scattered Clouds
11:53 PM 10.9 °F -9.2 °F -0.9 °F 59% 29.98 in 10.0 mi North 24.2 mph 27.6 mph N/A   Scattered Clouds